Location: Chiroubles
(46.1812°N, 4.6660°E)
Time: 03:38:23
(UTC+00:00)

Explorer 7 - Pass Details

Date: 03 December 2020
Orbit: 484 x 678 km, 50.3° (Epoch: 25 January)

Event Time Altitude Azimuth Distance (km) Brightness Sun altitude
Exits shadow 04:59:59 67° 283° (WNW) 600 6.7 -21.1°
Maximum altitude 05:00:30 85° 205° (SSW) 557 6.7 -21.0°
Drops below altitude 10° 05:04:31 10° 117° (ESE) 1,766 10.5 -20.3°
Sets 05:06:39 0° 117° (ESE) 2,625 11.7 -19.9°
